EW6438 Weather Reports


time (UTC)temp
C
wind
direction
speed
KPH
gust
KPH
rain 1hr
cm
rain 24hr
cm
rain mn
cm
humidity
%
barometer
mb
20260504050506 4 315 6.4 16.1 0.00 0.36 0.00 94 1007.9
20260504050020 3 5 3.2 16.1 0.00 0.36 0.00 94 1007.9
20260504045507 3 263 4.8 16.1 0.00 0.36 0.00 94 1008.0
20260504045007 3 309 8.0 16.1 0.00 0.36 0.00 94 1007.9
20260504044519 3 285 4.8 11.3 0.00 0.36 0.00 94 1007.9
20260504044007 3 244 1.6 9.7 0.03 0.36 0.00 94 1007.9
20260504043511 3 225 3.2 9.7 0.03 0.36 0.00 94 1007.9
20260504043016 3 253 3.2 9.7 0.03 0.36 0.00 94 1007.9
20260504042508 3 302 3.2 9.7 0.03 0.36 0.00 94 1007.9
20260504042011 3 286 3.2 9.7 0.05 0.36 0.00 94 1007.8
20260504041514 3 17 0.0 8.0 0.05 0.36 0.00 94 1007.8
20260504041003 3 275 3.2 11.3 0.08 0.36 0.00 93 1007.8
20260504040504 3 215 3.2 11.3 0.08 0.36 0.00 93 1007.8
20260504040018 3 249 0.0 12.9 0.10 0.36 0.00 94 1007.9
20260504035511 3 253 4.8 12.9 0.13 0.36 0.36 93 1007.8
20260504035013 3 271 3.2 8.0 0.13 0.36 0.36 93 1007.8
20260504034526 3 259 1.6 11.3 0.15 0.36 0.36 93 1007.8
20260504034010 3 229 3.2 11.3 0.15 0.33 0.33 93 1007.9
20260504033504 3 243 3.2 9.7 0.18 0.33 0.33 93 1007.8
20260504033025 3 278 3.2 12.9 0.20 0.33 0.33 93 1007.9
20260504032508 3 257 6.4 12.9 0.20 0.33 0.33 93 1008.1
20260504032013 3 332 4.8 14.5 0.18 0.30 0.30 92 1008.1
20260504031524 3 268 4.8 14.5 0.20 0.30 0.30 92 1008.2
20260504031007 3 200 4.8 14.5 0.18 0.28 0.28 92 1008.2
20260504030511 3 270 4.8 17.7 0.20 0.28 0.28 91 1008.3
20260504030017 3 259 3.2 17.7 0.18 0.25 0.25 91 1008.3
20260504025504 3 261 4.8 14.5 0.18 0.23 0.23 91 1008.4
20260504025007 3 286 4.8 14.5 0.18 0.23 0.23 91 1008.5
20260504024523 3 325 1.6 16.1 0.15 0.20 0.20 91 1008.4
20260504024008 3 280 4.8 27.4 0.15 0.18 0.18 90 1008.5
20260504023505 3 279 8.0 27.4 0.13 0.15 0.15 90 1008.5
20260504023027 3 300 1.6 11.3 0.10 0.13 0.13 90 1008.5
20260504022508 3 323 3.2 19.3 0.10 0.13 0.13 90 1008.5
20260504022006 3 281 3.2 19.3 0.10 0.13 0.13 90 1008.5
20260504021528 3 229 1.6 12.9 0.08 0.10 0.10 89 1008.6
20260504021009 3 211 3.2 12.9 0.08 0.10 0.10 89 1008.7
20260504020507 3 325 4.8 12.9 0.05 0.08 0.08 88 1008.8
20260504020028 3 288 3.2 6.4 0.05 0.08 0.08 87 1008.7
20260504015508 3 257 3.2 6.4 0.03 0.05 0.05 87 1008.7
20260504015007 3 261 1.6 6.4 0.03 0.05 0.05 85 1008.7
20260504014538 3 236 0.0 6.4 0.03 0.05 0.05 85 1008.6
20260504014004 3 259 1.6 12.9 0.00 0.03 0.03 84 1008.8
20260504013510 3 281 4.8 14.5 0.00 0.03 0.03 83 1008.9
20260504013023 3 296 3.2 20.9 0.00 0.03 0.03 81 1009.0
20260504012515 4 321 8.0 20.9 0.00 0.03 0.03 78 1008.9
20260504012010 4 288 11.3 17.7 0.00 0.03 0.03 75 1008.8
20260504011506 5 326 6.4 16.1 0.00 0.03 0.03 76 1008.8
20260504011004 5 322 4.8 17.7 0.00 0.03 0.03 73 1008.7
20260504010505 5 260 8.0 17.7 0.00 0.03 0.03 72 1008.6
20260504010013 5 276 6.4 14.5 0.00 0.03 0.03 67 1008.6
20260504005505 5 325 3.2 19.3 0.00 0.03 0.03 66 1008.6
20260504005003 5 241 8.0 19.3 0.00 0.03 0.03 67 1008.6
20260504004512 5 283 4.8 22.5 0.00 0.03 0.03 65 1008.6
20260504004004 5 294 9.7 22.5 0.00 0.03 0.03 66 1008.6
20260504003507 5 283 11.3 24.1 0.00 0.03 0.03 64 1008.5
20260504003007 5 306 11.3 24.1 0.00 0.03 0.03 62 1008.5
20260504002504 5 286 8.0 20.9 0.00 0.03 0.03 60 1008.6
20260504002006 6 332 11.3 20.9 0.00 0.03 0.03 60 1008.5
20260504001503 6 267 8.0 20.9 0.00 0.03 0.03 57 1008.5
20260504001004 6 14 9.7 19.3 0.00 0.03 0.03 57 1008.4
20260504000504 6 284 11.3 19.3 0.00 0.03 0.03 55 1008.3
20260504000017 6 289 8.0 16.1 0.00 0.03 0.03 54 1008.3
20260503235505 6 284 8.0 16.1 0.00 0.03 0.03 53 1008.2
20260503235003 6 262 3.2 11.3 0.00 0.03 0.03 54 1008.3
20260503234509 6 301 4.8 11.3 0.00 0.03 0.03 52 1008.3
20260503234004 6 278 3.2 9.7 0.00 0.03 0.03 50 1008.2
20260503233504 6 304 4.8 11.3 0.00 0.03 0.03 51 1008.2
20260503233019 6 294 3.2 14.5 0.00 0.03 0.03 50 1008.1
20260503232505 6 294 4.8 14.5 0.00 0.03 0.03 51 1008.1
20260503232004 6 291 6.4 17.7 0.00 0.03 0.03 50 1008.1
20260503231512 6 272 8.0 17.7 0.00 0.03 0.03 50 1008.0
20260503231005 6 282 4.8 16.1 0.00 0.03 0.03 52 1008.1
20260503230509 6 331 6.4 17.7 0.00 0.03 0.03 51 1008.1
20260503230014 6 333 6.4 19.3 0.00 0.03 0.03 48 1008.1
20260503225506 6 317 6.4 22.5 0.00 0.03 0.03 48 1008.1
20260503225003 6 311 12.9 22.5 0.00 0.03 0.03 49 1008.1
20260503224504 6 292 4.8 25.7 0.00 0.03 0.03 46 1008.0
20260503224007 6 302 6.4 25.7 0.00 0.03 0.03 47 1008.1
20260503223504 7 331 14.5 25.7 0.00 0.03 0.03 45 1008.0
20260503223013 7 308 8.0 27.4 0.00 0.03 0.03 44 1008.0
20260503222504 7 298 11.3 27.4 0.00 0.03 0.03 44 1007.9
20260503222004 7 332 11.3 19.3 0.00 0.03 0.03 44 1007.9
20260503221519 7 274 9.7 29.0 0.00 0.03 0.03 44 1008.0
20260503221003 7 266 9.7 29.0 0.00 0.03 0.03 44 1007.9
20260503220508 7 273 9.7 25.7 0.00 0.03 0.03 44 1007.9
20260503220021 7 166 9.7 25.7 0.00 0.03 0.03 43 1007.9
20260503215510 7 274 8.0 22.5 0.00 0.03 0.03 44 1007.9
20260503215002 7 323 11.3 25.7 0.00 0.03 0.03 43 1008.0
20260503214518 7 327 12.9 33.8 0.00 0.03 0.03 44 1007.9
20260503214003 7 228 6.4 33.8 0.00 0.03 0.03 43 1007.8
20260503213509 7 300 12.9 27.4 0.00 0.03 0.03 45 1007.9
20260503213012 7 310 9.7 27.4 0.00 0.03 0.03 43 1007.9
20260503212504 7 27 12.9 22.5 0.00 0.03 0.03 44 1008.0
20260503212005 7 345 4.8 24.1 0.00 0.03 0.03 42 1007.9
20260503211509 7 279 6.4 24.1 0.00 0.03 0.03 41 1007.9
20260503211004 7 329 9.7 32.2 0.00 0.03 0.03 42 1007.9
20260503210507 7 5 12.9 32.2 0.00 0.03 0.03 42 1007.8
20260503210039 7 280 6.4 25.7 0.00 0.03 0.03 39 1007.6
20260503205503 7 261 8.0 25.7 0.00 0.03 0.03 40 1007.7
20260503205007 7 276 12.9 25.7 0.00 0.03 0.03 39 1007.8
20260503204525 7 292 11.3 27.4 0.00 0.03 0.03 37 1007.7
20260503204003 7 261 14.5 37.0 0.00 0.03 0.03 40 1007.7
20260503203506 7 226 11.3 35.4 0.00 0.03 0.03 36 1007.8
20260503203014 8 290 6.4 35.4 0.00 0.03 0.03 34 1007.8
20260503202504 8 290 9.7 24.1 0.00 0.03 0.03 38 1007.7
20260503202004 8 277 9.7 30.6 0.00 0.03 0.03 37 1007.7
20260503201513 7 261 6.4 32.2 0.00 0.03 0.03 38 1007.6
20260503201004 7 264 12.9 32.2 0.00 0.03 0.03 38 1007.7
20260503200509 7 259 14.5 27.4 0.00 0.03 0.03 44 1007.7
20260503200017 7 304 11.3 24.1 0.00 0.03 0.03 42 1007.7
20260503195509 7 303 14.5 25.7 0.00 0.03 0.03 42 1007.6
20260503195009 7 307 11.3 25.7 0.00 0.03 0.03 38 1007.7
20260503194512 7 264 11.3 24.1 0.00 0.03 0.03 41 1007.7
20260503194007 7 287 9.7 32.2 0.00 0.03 0.03 41 1007.9
20260503193508 7 296 12.9 32.2 0.00 0.03 0.03 41 1007.9
20260503193025 7 261 11.3 25.7 0.00 0.03 0.03 44 1007.9
20260503192504 7 309 6.4 24.1 0.00 0.03 0.03 41 1008.1
20260503192005 7 288 6.4 24.1 0.00 0.03 0.03 41 1008.2
20260503191510 7 288 9.7 25.7 0.00 0.03 0.03 43 1008.1
20260503191003 7 295 8.0 25.7 0.00 0.03 0.03 41 1008.2
20260503190506 7 325 9.7 25.7 0.00 0.03 0.03 46 1008.4
20260503190016 6 282 11.3 30.6 0.00 0.03 0.03 46 1008.5
20260503185504 6 317 9.7 30.6 0.00 0.03 0.03 46 1008.5
20260503185004 6 338 12.9 29.0 0.00 0.03 0.03 51 1008.5
20260503184527 6 274 8.0 29.0 0.00 0.03 0.03 48 1008.6
20260503184011 6 311 9.7 29.0 0.00 0.03 0.03 45 1008.5
20260503183511 6 316 12.9 24.1 0.00 0.03 0.03 46 1008.6
20260503183021 6 324 9.7 32.2 0.00 0.03 0.03 47 1008.6
20260503182507 6 327 11.3 32.2 0.00 0.03 0.03 44 1008.6
20260503182010 6 340 9.7 24.1 0.00 0.03 0.03 47 1008.7
20260503181514 6 298 9.7 24.1 0.00 0.03 0.03 45 1008.8
20260503181007 6 327 8.0 22.5 0.00 0.03 0.03 47 1008.8
20260503180504 6 319 8.0 20.9 0.00 0.03 0.03 49 1008.8
20260503180014 6 302 4.8 17.7 0.00 0.03 0.03 48 1008.8
20260503175503 5 326 6.4 33.8 0.00 0.03 0.03 50 1008.8
20260503175003 5 277 14.5 33.8 0.00 0.03 0.03 48 1008.9
20260503174517 6 296 9.7 20.9 0.00 0.03 0.03 50 1008.8
20260503174003 5 334 4.8 22.5 0.00 0.03 0.03 51 1008.8
20260503173505 5 251 9.7 24.1 0.00 0.05 0.03 52 1008.9
20260503173024 5 316 4.8 24.1 0.00 0.05 0.03 53 1008.9
20260503172509 5 315 8.0 19.3 0.00 0.05 0.03 53 1009.0
20260503172010 4 292 9.7 19.3 0.00 0.05 0.03 53 1009.0
20260503171523 4 281 9.7 19.3 0.00 0.05 0.03 52 1009.0
20260503171008 5 281 4.8 30.6 0.00 0.05 0.03 52 1009.0
20260503170504 4 316 8.0 30.6 0.00 0.05 0.03 54 1009.1
20260503151003 3 316 8.0 24.1 0.00 0.23 0.03 59 1009.8
20260503150503 3 285 6.4 24.1 0.00 0.23 0.03 57 1009.9
20260503131004 2 270 4.8 16.1 0.03 0.23 0.03 75 1010.1
20260503130503 2 338 6.4 14.5 0.03 0.23 0.03 73 1010.1
20260503110510 0 299 4.8 11.3 0.00 0.20 0.00 86 1009.7
20260503090505 0 303 3.2 12.9 0.00 0.20 0.00 90 1009.4
20260503081542 0 294 1.6 8.0 0.00 0.23 0.00 91 1009.6
20260503081007 0 308 1.6 6.4 0.00 0.23 0.00 91 1009.5
20260503080510 0 323 1.6 6.4 0.00 0.23 0.00 91 1009.5
20260503072508 0 295 1.6 4.8 0.00 0.23 0.00 90 1009.7